Location: Rancho Del Sol Observatory
(38.7214°N, 120.6350°W)
Time: 05:38:05
(UTC-08:00)

Courier 1B - Pass Details

Date: 24 January 2020
Orbit: 962 x 1209 km, 28.3° (Epoch: 25 February)

Event Time Altitude Azimuth Distance (km) Brightness Sun altitude
Exits shadow 05:16:20 25° 228° (SW) 2,136 8.9 -23.0°
Maximum altitude 05:19:52 38° 181° (S) 1,715 8.8 -22.4°
Drops below altitude 10° 05:26:55 10° 116° (ESE) 3,133 11.2 -21.0°
Sets 05:30:01 0° 109° (ESE) 4,104 12.3 -20.4°
